KIAG

Niagara Falls International Airport

Airport
ICAO code
KIAG
IATA Code
IAG
Summary
ICAO Region
NAM
ICAO Territory
Location

Niagara Falls, New York,

Serving
Niagara Falls
Elevation
589 ft
Coordinates
43° 6' 17" N , 78° 56' 29" W
KCC
Airport GND
Aircraft Ground De/Anti Icing
Airport LOS
Parallel Runway Operation
Airport WX
Lake Effect Snow
Metar
Observation
KIAG 042153Z 20013G22KT 10SM CLR M03/M14 A3014 RMK AO2 PK WND 19026/2100 SLP228 T10281139 $
Station
Niagara Falls, Niagara Falls International Airport
Date/Time
2023-02-04 21:53:00
Wind direction
200°
Wind speed
13 kts
Lowest cloud amount
n/a
Temperature
-2.8°C
Dew point
-13.9°C
Humidity
42%
Weather condition
n/a

Niagara Falls International Airport is a joint civil-military (USAFR) airport located 6 km east of the central business district of Niagara Falls, in Niagara County, New York.

Climatology

Humid Continental climate (Köppen climate classification Dfb) - Variable weather patterns and a large seasonal temperature variance. Summers are often warm and humid with frequent thunderstorms and winters can be very cold with frequent snowfall and persistent snow cover.

Airport map

Aerial View

SKYbrary Partners:

Safety knowledge contributed by: